Printer-friendly version

IAU Minor Planet Center

Minor Planet Center

MPEC 2007-P37 : 2007 PD8

The following Minor Planet Electronic Circular may be linked-to from your own Web pages, but must not otherwise be redistributed electronically.


Read MPEC 2007-P36 Read MPEC 2007-P38


M.P.E.C. 2007-P37                                Issued 2007 Aug. 11, 18:23 UT

     The Minor Planet Electronic Circulars contain information on unusual
         minor planets and routine data on comets.  They are published
   on behalf of Commission 20 of the International Astronomical Union by the
          Minor Planet Center, Smithsonian Astrophysical Observatory,
                          Cambridge, MA 02138, U.S.A.

             Prepared using the Tamkin Foundation Computer Network

                              MPC@CFA.HARVARD.EDU
          URL http://www.cfa.harvard.edu/iau/mpc.html  ISSN 1523-6714

                                   2007 PD8

Observations:
     K07P08D* C2007 08 10.56993 00 11 21.84 -44 41 11.0          19.6 V EP037E12
     K07P08D  C2007 08 10.57751 00 11 25.47 -44 40 52.1          19.8 V EP037E12
     K07P08D  C2007 08 10.58512 00 11 29.29 -44 40 32.8          19.8 V EP037E12
     K07P08D  C2007 08 10.59280 00 11 33.03 -44 40 13.9          19.8 V EP037E12
     K07P08D  C2007 08 10.59708 00 11 35.08 -44 40 04.8          19.7 V EP037E12
     K07P08D  C2007 08 10.59762 00 11 35.37 -44 40 03.0          19.0 V EP037E12
     K07P08D  C2007 08 10.59815 00 11 35.62 -44 40 02.1          19.4 V EP037E12
     K07P08D  C2007 08 10.66957 00 12 10.07 -44 37 00.9          20.0 V EP037E12
     K07P08D  C2007 08 10.68336 00 12 16.66 -44 36 24.5          19.9 V EP037E12
     K07P08D  C2007 08 10.69716 00 12 23.25 -44 35 47.6          19.9 V EP037E12
     K07P08D  C2007 08 10.71099 00 12 29.76 -44 35 10.8          19.8 V EP037E12
     K07P08D  C2007 08 10.73260 00 12 40.10 -44 34 12.3          20.1 V EP037E12
     K07P08D  C2007 08 10.73391 00 12 40.63 -44 34 07.8          19.3 V EP037E12
     K07P08D  C2007 08 10.73456 00 12 41.03 -44 34 06.8          18.9 V EP037E12
     K07P08D  C2007 08 10.73522 00 12 41.28 -44 34 05.0          19.6 V EP037E12
     K07P08D  C2007 08 10.76707 00 12 56.52 -44 32 36.8          19.9 V EP037E12
     K07P08D  C2007 08 10.76854 00 12 57.24 -44 32 32.6          19.9 V EP037E12
     K07P08D  C2007 08 10.77004 00 12 57.88 -44 32 28.5          19.9 V EP037E12
     K07P08D  C2007 08 10.77151 00 12 58.57 -44 32 24.3          19.7 V EP037E12
     K07P08D  C2007 08 10.81527 00 13 19.62 -44 30 19.4          19.4 V EP037E12
     K07P08D  C2007 08 10.81603 00 13 19.98 -44 30 17.8          20.0 V EP037E12
     K07P08D  C2007 08 11.57174 00 19 50.19 -43 55 22.1          19.4 V EP037E12
     K07P08D  C2007 08 11.57449 00 19 51.52 -43 55 14.4          19.4 V EP037E12
     K07P08D  C2007 08 11.57724 00 19 52.78 -43 55 07.0          19.2 V EP037E12
     K07P08D  C2007 08 11.58000 00 19 54.04 -43 55 00.0          19.4 V EP037E12
     K07P08D  C2007 08 11.58286 00 19 55.41 -43 54 53.2          19.7 V EP037E12
     K07P08D  C2007 08 11.64411 00 20 23.89 -43 52 09.1          19.3 V EP037E12
     K07P08D  C2007 08 11.65792 00 20 30.12 -43 51 31.6          19.4 V EP037E12
     K07P08D  C2007 08 11.67212 00 20 36.67 -43 50 53.0          19.3 V EP037E12
     K07P08D  C2007 08 11.68649 00 20 43.29 -43 50 12.9          19.4 V EP037E12

Observer details:
E12 Siding Spring Survey.  Observers G. Garradd, G. J. Garradd.  Measurers
    E. C. Beshore, A. Boattini, G. J. Garradd, A. R. Gibbs, A. D. Grauer,
    R. E. Hill, R. A. Kowalski, S. M. Larson, R. H. McNaught.  0.5-m Uppsala
    Schmidt + CCD.

Orbital elements:
2007 PD8                                                 Earth MOID = 0.1072 AU
Epoch 2007 Oct. 27.0 TT = JDT 2454400.5                 MPC
M  22.26465              (2000.0)            P               Q
n   0.32170939     Peri.  262.07605     +0.84491381     +0.53103237
a   2.1094062      Node    65.82761     -0.45883909     +0.78123943
e   0.4832355      Incl.    4.03703     -0.27493153     +0.32813043
P   3.06           H   22.5           G   0.15           U   7
Residuals in seconds of arc
070810 E12  0.4+  0.2-    070810 E12  0.3-  0.1-    070810 E12  0.1+  0.2-
070810 E12  0.6-  0.2+    070810 E12  0.3+  0.2-    070811 E12  0.0   0.4-
070810 E12  0.3+  0.8+    070810 E12  0.7-  0.7+    070811 E12  0.4+  0.1+
070810 E12  0.1+  0.8+    070810 E12  0.3+  0.0     070811 E12  0.0   0.3+
070810 E12  0.3-  0.6-    070810 E12  0.4-  0.0     070811 E12  0.4-  0.1+
070810 E12  0.0   0.2-    070810 E12  0.3+  0.0     070811 E12  0.1-  0.5-
070810 E12  0.1-  0.6-    070810 E12  0.5+  0.1+    070811 E12  0.4+  0.4+
070810 E12  0.2+  0.6-    070810 E12  0.3-  0.0     070811 E12  0.7-  0.3+
070810 E12  0.3+  0.3-    070810 E12  0.5-  0.1+    070811 E12  0.2-  0.2-
070810 E12  0.4+  0.1+    070810 E12  0.2+  0.4+    070811 E12  0.5+  0.1-

Ephemeris:
2007 PD8                 a,e,i = 2.11, 0.48, 4                   q = 1.0901
Date    TT    R. A. (2000) Decl.     Delta      r     Elong.  Phase     V
2007 08 08    23 47.98   -46 24.6    0.112    1.097   135.6    40.3    19.5
2007 08 18    01 05.27   -38 13.7    0.116    1.090   129.8    45.5    19.7
2007 08 28    01 48.92   -28 43.0    0.128    1.095   128.7    46.0    20.0
2007 09 07    02 09.74   -20 27.9    0.147    1.112   132.1    42.3    20.2
2007 09 17    02 16.28   -13 52.5    0.170    1.139   139.0    35.4    20.4
2007 09 27    02 14.09   -08 37.1    0.199    1.177   148.1    26.8    20.6
2007 10 07    02 07.12   -04 23.8    0.236    1.222   158.2    17.7    20.7
2007 10 17    01 58.60   -00 57.8    0.282    1.273   167.1    10.1    20.9
2007 10 27    01 51.32   +01 52.5    0.340    1.330   168.9     8.3    21.4
2007 11 06    01 46.85   +04 15.5    0.412    1.390   162.1    12.6    22.0

Sonia Keys                   (C) Copyright 2007 MPC           M.P.E.C. 2007-P37

Read MPEC 2007-P36 Read MPEC 2007-P38


Our Web policy. Index to the CBAT/MPC/ICQ pages.


Valid HTML 4.01!